Location: Santa Teresa Spring
(37.2333°N, 121.7000°W)
Time: 22:32:13
(UTC-07:00)

ISS - Visible Passes

Search period start: 25 March 2017 00:00
Search period end: 04 April 2017 00:00
Orbit: 399 x 409 km, 51.6° (Epoch: 26 March)

Date Brightness Start Highest point End Pass type
(mag) Time Alt. Az. Time Alt. Az. Time Alt. Az.
25 Mar -1.7 05:40:48 16° S 05:40:48 16° S 05:41:46 10° S visible
25 Mar -2.4 20:38:09 10° S 20:39:59 22° SSE 20:39:59 22° SSE visible
26 Mar -2.3 21:21:43 10° WSW 21:23:52 35° W 21:23:52 35° W visible
27 Mar -4.0 20:29:18 10° SW 20:32:31 75° SE 20:34:46 19° NE visible
27 Mar -0.3 22:07:14 10° WNW 22:07:29 11° WNW 22:07:29 11° WNW visible
28 Mar -1.6 21:14:01 10° W 21:16:44 24° NNW 21:18:05 18° N visible
29 Mar -2.6 20:21:07 10° WSW 20:24:13 41° NW 20:27:21 10° NE visible
29 Mar -0.4 22:01:08 10° NNW 22:01:08 10° NNW 22:01:08 10° NNW visible
30 Mar -0.9 21:06:53 10° WNW 21:08:41 14° NNW 21:10:30 10° N visible
31 Mar -1.3 20:13:30 10° W 20:16:02 20° NNW 20:18:34 10° NNE visible
02 Apr -0.9 20:06:28 10° NW 20:07:55 12° NNW 20:09:23 10° N visible
